FW0153 Weather Reports


time (UTC)temp
F
wind
direction
speed
knots
gust
knots
rain 1hr
in
rain 24hr
in
rain mn
in
humidity
%
barometer
mb
20260503030505 65 84 0.0 0.0 0.00 0.00 0.00 72 1022.5
20260503030005 65 84 0.0 0.0 0.00 0.00 0.00 72 1022.2
20260503025505 65 84 0.0 0.0 0.00 0.00 0.00 71 1022.5
20260503025005 65 84 0.0 0.0 0.00 0.00 0.00 71 1022.2
20260503024504 65 76 0.0 0.0 0.00 0.00 0.00 71 1022.2
20260503024212 65 75 0.0 0.0 0.00 0.00 0.00 70 1022.2
20260503023505 66 72 0.0 0.0 0.00 0.00 0.00 70 1021.8
20260503023005 66 72 0.0 0.0 0.00 0.00 0.00 69 1022.2
20260503022505 66 71 0.0 0.0 0.00 0.00 0.00 68 1021.8
20260503022005 66 81 0.0 0.0 0.00 0.00 0.00 68 1021.5
20260503021713 66 50 0.0 0.0 0.00 0.00 0.00 67 1021.5
20260503021005 67 86 0.0 0.0 0.00 0.00 0.00 67 1021.5
20260503020505 67 81 0.0 0.0 0.00 0.00 0.00 66 1021.5
20260503020004 67 65 0.0 0.0 0.00 0.00 0.00 66 1021.5
20260503015505 68 12 7.8 0.0 0.00 0.00 0.00 65 1021.5
20260503015005 68 55 0.0 0.0 0.00 0.00 0.00 65 1021.5
20260503014505 68 73 0.0 0.0 0.00 0.00 0.00 65 1021.5
20260503014005 68 22 7.8 0.0 0.00 0.00 0.00 65 1021.5
20260503013712 68 1 7.8 0.0 0.00 0.00 0.00 65 1021.5
20260503013005 68 118 3.5 0.0 0.00 0.00 0.00 64 1021.2
20260503012505 68 25 3.5 0.0 0.00 0.00 0.00 63 1021.2
20260503012213 68 44 3.5 0.0 0.00 0.00 0.00 62 1021.2
20260503011506 68 94 3.5 0.0 0.00 0.00 0.00 61 1021.2
20260503011005 68 358 7.8 0.0 0.00 0.00 0.00 62 1021.2
20260503010505 69 52 3.5 0.0 0.00 0.00 0.00 61 1021.2
20260503010005 69 91 3.5 0.0 0.00 0.00 0.00 61 1020.8
20260503005505 69 44 3.5 0.0 0.00 0.00 0.00 61 1020.8
20260503005211 70 49 0.0 0.0 0.00 0.00 0.00 61 1020.8
20260503004505 70 58 3.5 0.0 0.00 0.00 0.00 60 1020.8
20260503004211 70 74 3.5 0.0 0.00 0.00 0.00 58 1020.5
20260503003505 70 63 3.5 0.0 0.00 0.00 0.00 58 1020.8
20260503003005 71 36 3.5 0.0 0.00 0.00 0.00 58 1020.5
20260503002505 70 50 0.0 0.0 0.00 0.00 0.00 58 1020.8
20260503002005 70 21 7.8 0.0 0.00 0.00 0.00 58 1020.8
20260503001505 71 68 0.0 0.0 0.00 0.00 0.00 57 1020.8
20260503001005 71 62 11.3 0.0 0.00 0.00 0.00 56 1020.5
20260503000505 71 42 7.8 0.0 0.00 0.00 0.00 56 1020.8
20260503000213 71 131 3.5 0.0 0.00 0.00 0.00 57 1020.5
20260502235505 71 258 11.3 0.0 0.00 0.00 0.00 56 1020.5
20260502235005 72 62 0.0 0.0 0.00 0.00 0.00 55 1020.5
20260502234505 72 65 3.5 0.0 0.00 0.00 0.00 54 1020.1
20260502234005 73 354 11.3 0.0 0.00 0.00 0.00 54 1020.1
20260502233505 73 294 7.8 0.0 0.00 0.00 0.00 55 1020.1
20260502233005 72 22 7.8 0.0 0.00 0.00 0.00 54 1020.1
20260502232504 73 305 3.5 0.0 0.00 0.00 0.00 53 1020.1
20260502232005 72 198 3.5 0.0 0.00 0.00 0.00 55 1020.1
20260502231505 71 33 3.5 0.0 0.00 0.00 0.00 56 1019.8
20260502231005 71 11 11.3 0.0 0.00 0.00 0.00 55 1019.8
20260502230505 71 37 3.5 0.0 0.00 0.00 0.00 57 1019.8
20260502230005 71 6 11.3 0.0 0.00 0.00 0.00 55 1020.1
20260502225505 72 331 20.0 0.0 0.00 0.00 0.00 55 1020.1
20260502225004 72 324 11.3 0.0 0.00 0.00 0.00 55 1020.1
20260502224505 72 54 11.3 0.0 0.00 0.00 0.00 56 1020.1
20260502224005 72 200 3.5 0.0 0.00 0.00 0.00 56 1019.8
20260502223505 72 14 11.3 0.0 0.00 0.00 0.00 54 1019.8
20260502223212 72 31 11.3 0.0 0.00 0.00 0.00 54 1019.8
20260502222713 72 29 3.5 0.0 0.00 0.00 0.00 55 1020.1
20260502222212 72 264 3.5 0.0 0.00 0.00 0.00 55 1020.1
20260502221505 71 60 11.3 0.0 0.00 0.00 0.00 56 1020.1
20260502221005 72 38 11.3 0.0 0.00 0.00 0.00 55 1020.1
20260502220713 73 337 15.6 0.0 0.00 0.00 0.00 54 1019.8
20260502220004 71 128 3.5 0.0 0.00 0.00 0.00 57 1020.1
20260502215505 71 73 7.8 0.0 0.00 0.00 0.00 57 1020.1
20260502215005 72 75 15.6 0.0 0.00 0.00 0.00 56 1020.1
20260502214713 73 11 3.5 0.0 0.00 0.00 0.00 55 1020.1
20260502214005 73 57 11.3 0.0 0.00 0.00 0.00 55 1020.1
20260502213505 72 350 0.0 0.0 0.00 0.00 0.00 58 1020.5
20260502213005 72 343 11.3 0.0 0.00 0.00 0.00 57 1020.1
20260502212505 72 4 3.5 0.0 0.00 0.00 0.00 58 1020.1
20260502212005 72 325 11.3 0.0 0.00 0.00 0.00 57 1020.5
20260502211505 74 44 3.5 0.0 0.00 0.00 0.00 55 1020.5
20260502211005 74 216 7.8 0.0 0.00 0.00 0.00 56 1020.5
20260502210505 75 10 20.0 0.0 0.00 0.00 0.00 54 1020.1
20260502210004 73 301 3.5 0.0 0.00 0.00 0.00 56 1020.5
20260502205713 72 5 11.3 0.0 0.00 0.00 0.00 58 1020.5
20260502205212 72 308 3.5 0.0 0.00 0.00 0.00 61 1020.5
20260502204505 73 188 0.0 0.0 0.00 0.00 0.00 58 1020.5
20260502204005 72 2 7.8 0.0 0.00 0.00 0.00 59 1020.5
20260502203505 71 33 7.8 0.0 0.00 0.00 0.00 60 1020.8
20260502203211 72 346 11.3 0.0 0.00 0.00 0.00 60 1020.8
20260502202505 73 19 3.5 0.0 0.00 0.00 0.00 58 1020.5
20260502202005 71 268 7.8 0.0 0.00 0.00 0.00 62 1020.8
20260502201505 71 359 7.8 0.0 0.00 0.00 0.00 63 1020.8
20260502201005 71 41 11.3 0.0 0.00 0.00 0.00 63 1020.8
20260502200505 71 64 3.5 0.0 0.00 0.00 0.00 62 1021.2
20260502200213 71 60 7.8 0.0 0.00 0.00 0.00 62 1020.8
20260502195505 71 4 15.6 0.0 0.00 0.00 0.00 63 1021.2
20260502195005 71 185 7.8 0.0 0.00 0.00 0.00 64 1021.2
20260502194504 71 296 11.3 0.0 0.00 0.00 0.00 64 1021.2
20260502194005 70 302 11.3 0.0 0.00 0.00 0.00 64 1021.2
20260502193505 70 200 0.0 0.0 0.00 0.00 0.00 66 1021.2
20260502193005 70 145 0.0 0.0 0.00 0.00 0.00 65 1021.5
20260502192712 69 34 3.5 0.0 0.00 0.00 0.00 66 1021.5
20260502192005 69 236 11.3 0.0 0.00 0.00 0.00 66 1021.5
20260502191505 69 302 11.3 0.0 0.00 0.00 0.00 66 1021.2
20260502191005 68 168 3.5 0.0 0.00 0.00 0.00 67 1021.5
20260502190505 68 66 3.5 0.0 0.00 0.00 0.00 68 1021.5
20260502190005 69 244 11.3 0.0 0.00 0.00 0.00 66 1021.5
20260502185505 69 20 3.5 0.0 0.00 0.00 0.00 66 1021.5
20260502185004 68 245 7.8 0.0 0.00 0.00 0.00 68 1021.5
20260502184505 68 213 7.8 0.0 0.00 0.00 0.00 68 1021.5
20260502184213 68 226 15.6 0.0 0.00 0.00 0.00 68 1021.5
20260502183505 68 306 20.0 0.0 0.00 0.00 0.00 69 1021.5
20260502183005 68 192 3.5 0.0 0.00 0.00 0.00 70 1021.8
20260502182504 68 124 7.8 0.0 0.00 0.00 0.00 69 1021.8
20260502182213 68 11 15.6 0.0 0.00 0.00 0.00 69 1021.5
20260502181505 68 202 7.8 0.0 0.00 0.00 0.00 70 1021.8
20260502181005 68 308 7.8 0.0 0.00 0.00 0.00 68 1021.8
20260502180505 68 218 7.8 0.0 0.00 0.00 0.00 70 1021.8
20260502180212 68 6 7.8 0.0 0.00 0.00 0.00 70 1021.8
20260502170505 65 302 11.3 0.0 0.00 0.00 0.00 76 1022.5
20260502164005 65 9 7.8 0.0 0.00 0.00 0.00 76 1022.5
20260502163505 65 198 11.3 0.0 0.00 0.00 0.00 75 1022.5
20260502163212 64 344 3.5 0.0 0.00 0.00 0.00 77 1022.2
20260502162505 64 283 3.5 0.0 0.00 0.00 0.00 78 1022.2
20260502162004 63 275 7.8 0.0 0.00 0.00 0.00 78 1022.2
20260502161505 63 350 11.3 0.0 0.00 0.00 0.00 79 1022.5
20260502161005 63 182 7.8 0.0 0.00 0.00 0.00 78 1022.2
20260502160713 63 139 3.5 0.0 0.00 0.00 0.00 79 1022.5
20260502152005 63 48 11.3 0.0 0.00 0.00 0.00 78 1021.8
20260502151505 62 315 7.8 0.0 0.00 0.00 0.00 79 1021.8
20260502151005 62 271 11.3 0.0 0.00 0.00 0.00 80 1021.8
20260502150712 62 278 7.8 0.0 0.00 0.00 0.00 80 1021.8
20260502150211 62 234 3.5 0.0 0.00 0.00 0.00 81 1021.8
20260502130505 62 42 0.0 0.0 0.00 0.00 0.00 84 1020.1
20260502123505 62 226 3.5 0.0 0.00 0.00 0.00 83 1019.8
20260502123005 62 67 0.0 0.0 0.00 0.00 0.00 83 1019.5
20260502122505 62 170 7.8 0.0 0.00 0.00 0.00 83 1019.5
20260502122212 62 21 7.8 0.0 0.00 0.00 0.00 83 1019.5
20260502121505 62 351 11.3 0.0 0.00 0.00 0.00 83 1019.5
20260502121005 62 247 3.5 0.0 0.00 0.00 0.00 83 1019.1
20260502120505 62 283 11.3 0.0 0.00 0.00 0.00 83 1019.5
20260502120212 62 226 7.8 0.0 0.00 0.00 0.00 83 1019.1
20260502115713 62 30 7.8 0.0 0.00 0.00 0.00 83 1018.8
20260502115004 62 291 11.3 0.0 0.00 0.00 0.00 83 1019.1
20260502114505 62 296 0.0 0.0 0.00 0.00 0.00 83 1019.1
20260502114005 62 187 3.5 0.0 0.00 0.00 0.00 83 1018.8
20260502113505 62 333 3.5 0.0 0.00 0.00 0.00 83 1018.8
20260502113005 62 328 7.8 0.0 0.00 0.00 0.00 83 1018.4
20260502112713 62 193 3.5 0.0 0.00 0.00 0.00 83 1018.4
20260502112005 62 330 7.8 0.0 0.00 0.00 0.00 83 1018.1
20260502111505 62 241 11.3 0.0 0.00 0.00 0.00 83 1018.4
20260502111005 62 28 3.5 0.0 0.00 0.00 0.00 83 1018.1
20260502110504 62 10 11.3 0.0 0.00 0.00 0.00 84 1018.1
20260502110005 62 334 7.8 0.0 0.00 0.00 0.00 84 1018.1
20260502105713 62 317 11.3 0.0 0.00 0.00 0.00 84 1017.8
20260502105005 62 29 11.3 0.0 0.00 0.00 0.00 83 1017.8
20260502104505 62 36 3.5 0.0 0.00 0.00 0.00 83 1017.8
20260502104004 62 329 11.3 0.0 0.00 0.00 0.00 84 1017.8
20260502103713 62 342 7.8 0.0 0.00 0.00 0.00 84 1017.4
20260502103212 62 15 7.8 0.0 0.00 0.00 0.00 84 1017.4
20260502102505 62 164 7.8 0.0 0.00 0.00 0.00 85 1017.8
20260502102004 62 319 7.8 0.0 0.00 0.00 0.00 85 1017.4
20260502101713 62 253 11.3 0.0 0.00 0.00 0.00 85 1017.4
20260502101005 62 204 7.8 0.0 0.00 0.00 0.00 85 1017.4
20260502100712 62 304 0.0 0.0 0.00 0.00 0.00 85 1017.4
20260502091505 63 100 3.5 0.0 0.00 0.00 0.00 85 1017.1
20260502091005 63 219 3.5 0.0 0.00 0.00 0.00 85 1017.1
20260502090505 63 207 7.8 0.0 0.00 0.00 0.00 86 1016.7
20260502071505 65 286 23.5 0.0 0.00 0.00 0.00 82 1015.4
20260502071005 65 174 7.8 0.0 0.00 0.00 0.00 82 1015.4
20260502070505 65 42 20.0 0.0 0.00 0.00 0.00 82 1015.4
20260502070212 65 338 44.3 0.0 0.00 0.00 0.00 82 1015.7
20260502065505 65 312 20.0 0.0 0.00 0.00 0.00 82 1015.7
20260502065005 65 265 20.0 0.0 0.00 0.00 0.00 82 1015.7
20260502064505 65 24 23.5 0.0 0.00 0.00 0.00 82 1016.1
20260502064005 65 228 7.8 0.0 0.00 0.00 0.00 82 1015.7
20260502063713 65 232 11.3 0.0 0.00 0.00 0.00 82 1016.1
20260502063005 65 340 11.3 0.0 0.00 0.00 0.00 82 1016.1
20260502062713 65 45 20.0 0.0 0.00 0.00 0.00 82 1016.1
20260502062005 65 331 15.6 0.0 0.00 0.00 0.00 82 1016.1
20260502061505 65 61 7.8 0.0 0.00 0.00 0.00 82 1016.1
20260502061005 65 12 15.6 0.0 0.00 0.00 0.00 82 1016.1
20260502060505 65 198 15.6 0.0 0.00 0.00 0.00 81 1015.7
20260502060005 65 345 23.5 0.0 0.00 0.00 0.00 81 1016.1
20260502055505 66 167 7.8 0.0 0.00 0.00 0.00 81 1015.7
20260502055212 66 226 20.0 0.0 0.00 0.00 0.00 80 1016.1
20260502054505 66 38 15.6 0.0 0.00 0.00 0.00 80 1016.1
20260502054212 66 272 3.5 0.0 0.00 0.00 0.00 80 1015.7
20260502053504 66 166 11.3 0.0 0.00 0.00 0.00 80 1015.7
20260502053005 66 294 20.0 0.0 0.00 0.00 0.00 80 1015.7
20260502052713 67 308 3.5 0.0 0.00 0.00 0.00 80 1015.7
20260502052005 67 61 7.8 0.0 0.00 0.00 0.00 79 1015.7
20260502051505 67 215 15.6 0.0 0.00 0.00 0.00 79 1015.7
20260502051214 67 47 15.6 0.0 0.00 0.00 0.00 79 1015.7
20260502050505 67 168 15.6 0.0 0.00 0.00 0.00 80 1015.7
20260502045505 67 244 11.3 0.0 0.00 0.00 0.00 80 1015.7
20260502045005 67 34 7.8 0.0 0.00 0.00 0.00 80 1015.4
20260502044505 67 83 3.5 0.0 0.00 0.00 0.00 79 1015.4
20260502044005 67 309 20.0 0.0 0.00 0.00 0.00 79 1015.4
20260502043505 67 358 20.0 0.0 0.00 0.00 0.00 78 1015.0
20260502043004 67 330 23.5 0.0 0.00 0.00 0.00 78 1015.0
20260502042505 67 323 11.3 0.0 0.00 0.00 0.00 78 1015.0
20260502042005 67 252 15.6 0.0 0.00 0.00 0.00 78 1015.4
20260502041505 68 97 11.3 0.0 0.00 0.00 0.00 78 1015.0
20260502041005 68 28 7.8 0.0 0.00 0.00 0.00 79 1015.4
20260502040505 68 209 11.3 0.0 0.00 0.00 0.00 79 1015.0
20260502040005 68 244 11.3 0.0 0.00 0.00 0.00 79 1015.0
20260502035504 68 235 7.8 0.0 0.00 0.00 0.00 79 1014.7
20260502035005 68 265 11.3 0.0 0.00 0.00 0.00 80 1014.4
20260502034505 68 0 11.3 0.0 0.00 0.00 0.00 80 1014.7
20260502034005 68 95 3.5 0.0 0.00 0.00 0.00 80 1014.7
20260502033712 68 336 23.5 0.0 0.00 0.00 0.00 79 1014.4
20260502033005 68 343 11.3 0.0 0.00 0.00 0.00 79 1014.7
20260502032506 68 183 11.3 0.0 0.00 0.00 0.00 78 1014.4
20260502032004 68 342 11.3 0.0 0.00 0.00 0.00 78 1014.4
20260502031505 68 29 23.5 0.0 0.00 0.00 0.00 79 1014.4
20260502031005 68 322 7.8 0.0 0.00 0.00 0.00 79 1014.0